Regional Weather Roundup
Issued by NWS

Home | Current Version | Previous Version | Graphics & Text | Print | Product List | Glossary On
Versions: 1 2 3 4 5 6 7 8 9 10 11 12 13 14 15 16 17 18 19 20 21 22 23 24 25 26 27 28 29 30 31 32 33 34 35 36 37 38 39 40 41 42 43 44 45 46 47 48 49 50
000
ASUS44 KMEG 261710
RWRTN
TENNESSEE HOURLY STATE WEATHER ROUNDUP
NATIONAL WEATHER SERVICE MEMPHIS TN
1200 PM CDT FRI MAY 26 2017

TNZ002-004-019-021-049-052-054-088>092-261800-
WEST TENNESSEE

CITY           SKY/WX    TMP DP  RH WIND       PRES   REMARKS
MEMPHIS INTL   MOSUNNY   82  61  48 S26G37    29.90R
NWS MEMPHIS      N/A     82 N/A N/A MISG        N/A
JACKSON        SUNNY     84  55  36 S13G22    29.91F
DYERSBURG        N/A    N/A N/A N/A MISG        N/A
COVINGTON      SUNNY     82  59  44 S16G23    29.89S
UNION CITY     SUNNY     82  55  39 S20G25    29.85F
BOLIVAR        SUNNY     81  57  44 S10G22    29.91F
PARIS          SUNNY     81  59  47 S18G24    29.88F
HUNTINGDON     SUNNY     82  59  44 S14       29.90F
LEXINGTON      SUNNY    N/A N/A N/A MISG      29.94F
SELMER         SUNNY     81  59  47 SW12G20   29.95S
SAVANNAH       SUNNY     81  63  54 SW10G21   29.96S
$$

TNZ008-025-027-028-033-062-065-066-261800-
NORTH MIDDLE TENNESSEE

CITY           SKY/WX    TMP DP  RH WIND       PRES   REMARKS
NASHVILLE      MOSUNNY   80  62  54 S10G18    29.97F
PORTLAND       MOSUNNY   73  63  68 S9        29.96F
CLARKSVILLE    CLOUDY    78  60  53 SW13      29.91F
SMYRNA         MOSUNNY   78  64  61 S6        29.99F
COOKEVILLE     CLOUDY    75  59  57 SW7       30.03S
GALLATIN       MOSUNNY   75  61  60 S8        30.00F
CROSSVILLE     CLOUDY    70  56  61 W8        30.08R
$$

TNZ061-075-076-078-094-096-097-261800-
SOUTH MIDDLE TENNESSEE

CITY           SKY/WX    TMP DP  RH WIND       PRES   REMARKS
FAYETTEVILLE   MOSUNNY   77  64  65 W9G18     30.02S
TULLAHOMA      MOSUNNY   75  61  60 SW9       30.04F
WINCHESTER     CLOUDY    75  61  60 W8          N/A
MCMINNVILLE    CLOUDY    75  61  60 SW7       30.04F
COLUMBIA       SUNNY     79  64  61 S9        29.96F
SHELBYVILLE    SUNNY     77  64  65 SW5       30.00F
$$

TNZ017-018-042-046-047-261800-
NORTHEAST TENNESSEE

CITY           SKY/WX    TMP DP  RH WIND       PRES   REMARKS
TRI CITIES     PTSUNNY   71  53  52 W8        30.03R
ELIZABETHTON   PTSUNNY   72  54  53 NW10G17   30.02S
$$

TNZ012-013-036-069-073-074-261800-
CENTRAL EAST TENNESSEE

CITY           SKY/WX    TMP DP  RH WIND       PRES   REMARKS
KNOXVILLE      MOSUNNY   73  52  47 W8        30.04R
OAK RIDGE      SUNNY     75  53  46 VRB5      30.05R
DOWNTOWN KNOXV SUNNY     75  55  50 W9G16     30.04S
GATLINBURG     SUNNY     75  54  46 W9        30.03S
MORRISTOWN     MOSUNNY   72  54  53 W10G16    30.03S
JACKSBORO      SUNNY     75  52  43 VRB7      30.06S
$$

TNZ083-085-099-261800-
SOUTHEAST TENNESSEE

CITY           SKY/WX    TMP DP  RH WIND       PRES   REMARKS
CHATTANOOGA    PTSUNNY   77  55  46 W13       30.05R
$$

SKY/WX REPORTED AS FAIR MEANS FEW OR NO CLOUDS BELOW
12 THOUSAND FEET.





USA.gov is the U.S. government's official web portal to all federal, state and local government web resources and services.